Regional Weather Roundup
Issued by NWS Wakefield, VA

Home | Current Version | Previous Version | Graphics & Text | Print | Product List | Glossary On
Versions: 1 2 3 4 5 6 7 8 9 10 11 12 13 14 15 16 17 18 19 20 21 22 23 24 25 26 27
000
ASUS41 KAKQ 010715
RWRAKQ

REGIONAL WEATHER ROUNDUP
NATIONAL WEATHER SERVICE WAKEFIELD VA
300 AM EDT SUN MAY 01 2016

Note: "fair" indicates few or no clouds below 12,000 feet with no
significant weather and/or obstructions to visibility. * = Denotes
station may not report precipitation (e.g., rain,snow,etc.),
thunder or fog.

VAZ042-051-052>054-056-010800-
NORTHERN VIRGINIA

CITY           SKY/WX    TMP DP  RH WIND       PRES   REMARKS
WASH NATIONAL  LGT RAIN  52  49  89 SE7       30.16F
DULLES         LGT RAIN  52  51  97 SE7       30.14F
FORT BELVOIR   LGT RAIN  52  50  93 SE6       30.15F
QUANTICO       LGT RAIN  55  50  82 S13       30.17F
FREDERICKSBRG* LGT RAIN  53  53 100 CALM      30.15F
STAFFORD*      DRIZZLE   52  51  95 SE3       30.19F
WARRENTON      RAIN      53  48  84 S5        30.14F
CULPEPER*      DRIZZLE   53  53  99 S3        30.15F
MANASSAS*      CLOUDY    54  52  94 S6        30.15F
LEESBURG*      LGT RAIN  54  54 100 S10       30.14F
WINCHESTER     LGT RAIN  52  50  93 S12G17    30.08F
FRONT ROYAL*   CLOUDY    52  50  93 S7        30.08F
LURAY*         RAIN      52  52 100 SW8       30.09F
$$

VAZ048-049-060>072-079>083-010800-
CENTRAL AND SOUTH CENTRAL VIRGINIA

CITY           SKY/WX    TMP DP  RH WIND       PRES   REMARKS
RICHMOND       CLOUDY    53  50  89 E3        30.14F
CHESTERFIELD*  CLOUDY    54  39  58 SE6       30.15F
PETERSBURG*    CLOUDY    55  51  87 CALM      30.14F
HANOVER        CLOUDY    53  49  86 CALM      30.16F
TAPPAHANNOCK*  CLOUDY    54  53  96 CALM      30.16F
QUINTON*       CLOUDY    53  51  91 E3        30.14F
CHARLOTTSVILLE LGT RAIN  54  51  90 S6        30.12F FOG
GORDONSVILLE*  CLOUDY    53  53 100 CALM      30.13F FOG
ORANGE*        RAIN      54  54 100 CALM      30.16F
LOUISA*        RAIN      55  55 100 E7        30.13F
BUMPASS*       CLOUDY    52  51  98 CALM      30.16S
FARMVILLE*     HVY RAIN  55  55 100 CALM      30.14S
CREWE*         CLOUDY    52  52 100 N3        30.14R
FORT PICKETT*  NOT AVBL
CHASE CITY*    CLOUDY    54  53  95 CALM      30.12F
CLARKSVILLE*   CLOUDY    55  55 100 CALM      30.12S
SOUTH HILL*    CLOUDY    55  52  90 SE3       30.17F
LAWRENCEVILLE* CLOUDY    54  51  90 SE6       30.12F
EMPORIA*       CLOUDY    54  50  87 SE7       30.15F
$$

VAZ088>098-010800-
SOUTHEAST VIRGINIA

CITY           SKY/WX    TMP DP  RH WIND       PRES   REMARKS
NORFOLK        FAIR      55  49  80 SE7       30.13F
VIRGINIA BEACH CLOUDY    58  49  72 E7        30.13F
NORFOLK NAVAL  CLOUDY    55  50  83 SE8       30.14F
WEST POINT*    CLOUDY    54  51  90 CALM      30.17S
SALUDA*        CLOUDY    55  51  88 SE3       30.15F
NEWPORT NEWS   FAIR      54  51  90 E3        30.13F
LANGLEY AFB    MOCLDY    55  51  85 SE6       30.13F
FORT EUSTIS    FAIR      55  51  86 E3        30.11F
WILLIAMSBURG*  FAIR      55  54  94 CALM      30.15F
HR EXEC AP*    CLOUDY    54  50  87 SE6       30.15F
FRANKLIN*      CLOUDY    54  49  86 SE5       30.14S
US460-WAKEFLD  CLOUDY    54  49  83 CALM      30.13F
$$

VAZ020-022-025-037-045-010800-
WEST CENTRAL AND SOUTHWEST VIRGINIA

CITY           SKY/WX    TMP DP  RH WIND       PRES   REMARKS
STAUNTON*      RAIN      55  55 100 S3        30.12F
WAYNESBORO*    CLOUDY    51  50  96 MISG      30.11F
HOT SPRINGS VA LGT RAIN  48  48 100 S13G18    30.10F VSB 1/2
LYNCHBURG      LGT RAIN  53  52  96 CALM      30.14S
DANVILLE       LGT RAIN  56  55  97 E3        30.10F FOG
SOUTH BOSTON*  CLOUDY    55  54  95 CALM      30.12F
MARTINSVILLE   LGT RAIN  53  53 100 CALM      30.14F
ROANOKE        LGT RAIN  54  53  97 SE7       30.13F
BLACKSBURG     RAIN      53  52  99 CALM      30.14F
DUBLIN*        RAIN      54  54 100 E5        30.12F
MARION*        CLOUDY    56  53  92 E9        30.09F
HILLSVILLE*    HVY RAIN  53  53 100 CALM      30.10F
RICHLANDS*     CLOUDY    58  56  96 CALM      30.03F
WISE*          CLOUDY    59  59 100 S5        30.02F
ABINGDON*      CLOUDY    60  59  97 E8        30.02F
$$

MDZ021>025-VAZ099-100-010800-
SOUTHERN MARYLAND AND THE DELMARVA PENINSULA

CITY           SKY/WX    TMP DP  RH WIND       PRES   REMARKS
PATUXENT RIVER CLOUDY    54  46  74 SE9       30.15F
BAY BRIDGE APT NOT AVBL
LEONARDTOWN    CLOUDY    52  46  82 CALM      30.17F
DOVER          CLOUDY    50  48  94 SE5       30.16F
GEORGETOWN     CLOUDY    49  46  90 E3        30.17F
EASTON         CLOUDY   N/A N/A N/A SE5       30.20F
CAMBRIDGE      CLOUDY    48  45  87 CALM      30.16F
SALISBURY      CLOUDY    49  47  93 E3        30.17F
OCEAN CITY     CLOUDY    51  46  83 E5        30.18F
WALLOPS ISLAND CLOUDY    53  46  77 E6        30.17F
ACCOMACK*      MOCLDY   N/A N/A N/A CALM      30.16R
$$

NCZ012>017-030>032-010800-
NORTH CENTRAL AND EASTERN NORTH CAROLINA

CITY           SKY/WX    TMP DP  RH WIND       PRES   REMARKS
ROANOKE RAPIDS CLOUDY    54  52  94 SE3       30.13F
RALEIGH        CLOUDY    60  56  86 SE6       30.13S
ELIZABETH CITY CLOUDY    56  53  90 E7        30.13F
AHOSKIE*       CLOUDY    54  51  89 CALM      30.14F
EDENTON*       MOCLDY    56  56 100 NE3       30.15S
CURRITUCK*     MOCLDY    57  53  86 E6        30.14F
KILL DEVIL HLS CLOUDY    56  55  93 E8        30.11F
MANTEO         NOT AVBL
CAPE HATTERAS  MOCLDY    59  55  87 NE7       30.10F
TARBORO*       CLOUDY    57  54  89 SE3       30.14F
GOLDSBORO      CLOUDY    61  61 100 E7        30.10F
WASHINGTON     CLOUDY    55  53  93 NE3       30.13F
GREENVILLE     CLOUDY    55  54  94 E6        30.14F
NEW BERN       CLOUDY    60  57  89 NE3       30.13F
WILMINGTON     CLOUDY    65  62  90 E5        30.10F
$$

VAZ048-010800-
ELSEWHERE

CITY           SKY/WX    TMP DP  RH WIND       PRES   REMARKS
HARRISBURG PA  LGT RAIN  51  45  79 S9        30.13S
BALTIMORE      LGT RAIN  50  46  86 VRB5      30.16F
ANNAPOLIS      CLOUDY    52  45  77 MISG      30.15F
ANDREWS AFB    DRIZZLE   50  48  93 SE7       30.15F
PHILADELPHIA   CLOUDY    50  38  63 S5        30.18F
HENDERSON NC   CLOUDY    57  57 100 SE6       30.11F
GREENSBORO     DRIZZLE   59  59 100 SE5       30.09F FOG
ROCKY MOUNT    CLOUDY    57  54  89 E5        30.12F
$$

VAZ100-010800-
MARINE

STATION/POSITION TIME  TEMP    WIND        PRES    WAVE   SWELL
                       AIR SEA DIR/SP/G            HT/PER HT/PER
                 (UTC) (F)     (DEG/KT/KT) (MB)    (FT/S) (FT/S)
BRANDYWINE LGT   0600   50     150/  9/ 11 1022.7F
CAPE MAY NJ      0600   50 57  120/  4/  5 1022.4F
LEWES DE         0600   51 56  140/  3/  5 1022.4F
15NM E FENWICK I 0650   50 51              1022.1F   5/ 8
OCEAN-CITY-INLET 0600   51 55  110/  3/  4 1021.8F
WACHAPREAGUE VA  0600   54 59  110/  8/ 11 1021.0F
THOMAS POINT MD  0700   53 57  160/ 14/ 16 1022.2F
GOOSES REEF MD   0700   53 57  140/ 10/ 12 1022.1F   1/ 2
COVE POINT MD    0600   52     140/ 10/ 12 1022.3F
SOLOMONS ISLAND  0600   54 59  120/  9/ 10   N/A
BISHOPS HEAD MD  0600   53 58  100/  6/  8 1021.3F
PINEY POINT MD   0600          140/ 12/ 14   N/A
POTOMAC MD       0700   55 58  150/ 10/ 12 1020.2F   2/ 3
CAMBRIDGE MD     0600   51 60  130/  1/  3 1021.6F
LEWISETTA VA     0600   55 60  140/  8/ 10 1021.2F
RAPPAHANNOCK LGT 0600          100/  9/ 11 1021.5F
STINGRAY PT      0700   56 60  130/ 12/ 14 1021.2F   2/ 3
YORK RVR RNG VA  0600   56     140/ 13/ 15 1020.2F
YORKTOWN VA      0600   56 61  120/  9/ 12 1020.6F
JAMESTOWN VA     0700   56 65   90/  6/ 10   N/A     1
DOMINION TERM VA 0600   55     110/ 10/ 12 1021.0F
KIPTOPEKE VA     0600      59  120/  9/ 14   N/A
CHES BAY BRIDGE  0600   56 60   90/  9/ 13 1020.6F
CAPE HENRY VA    0600   55     100/ 12/ 14   N/A
CHESAPEAKE LGHT  0600   54      90/ 14/ 15 1021.6F
WILLOUBY STN VA  0600   55     140/  8/  9 1021.8F
CAPE HENRY BUOY  0612      55                N/A     4/10   2/11
CAPE CHARLES BUO 0626      57                N/A     4/10   3/10
OFFSHORE WE BUOY 0621      54                N/A     5/10   5/10
64NM E OF VA BCH 0650   54 53   50/  6/  8 1020.2F   6/ 9   5/ 9
DUCK PIER NC     0600   56 67   80/ 11/ 12 1020.7F
44100 DUCK FRF   0654      54                N/A     5/10   2/11
44056 DUCK FRF   0611      59                N/A     5/10   2/11
OREGON INLET NC  0600   57 62   30/  7/  9 1020.6F
HATTERAS NC      0600   62 68   50/ 10/ 14 1019.7F
DIAMOND SHLS NC  0650   68 73   60/  8/ 16 1019.2F   6/10   5/10
CAPE LOOKOUT NC  0700   64      60/ 11/ 12C1F1C2F2C3F3C4F4C5F5C6F6C7F7C8M1C9!



USA.gov is the U.S. government's official web portal to all federal, state and local government web resources and services.